www.pogodaiklimat.ru

Погода и климат >> Архив погоды >> Россия >> Ненецкий АО >> Мыс Микулкин


ПОГОДА на Мысе Микулкин

  • Прогноз погоды на Мысе Микулкин
  • Монитор погоды на Мысе Микулкин
  • Климат города

АРХИВ ПОГОДЫ на Мысе Микулкин

Время (UTC), дата Ветер
(напр.,м/с)
 
Видим.   Явления Облачность Т
(С)
Тd
(С)
f
(%)
Тe
(С)
Тes
(С)
Комфортность P
(гПа)
Po
(гПа)
Тmin
(С)
Tmax
(С)
R
(мм)
R24
(мм)
S
(см)
03 10.12 Ю 5 н/о н/о -7.9 -8.6 95 -16 -16 1017.0 1016.2
06 10.12 Ю 6 н/о н/о -7.8 -8.2 97 -16 -16 1018.0 1017.3
09 10.12 ЮЗ 7 н/о н/о -7.0 -7.7 95 -16 -16 1018.9 1018.1
12 10.12 ЮЗ 8 н/о н/о -6.4 -6.9 96 -16 -16 1019.2 1018.5
15 10.12 ЮЗ 8 н/о н/о -6.3 -6.7 97 -16 -16 1018.9 1018.2
18 10.12 ЮЗ 8 н/о н/о -5.6 -6.1 96 -15 -15 1019.3 1018.5
21 10.12 ЮЗ 7 н/о н/о -5.1 -5.6 96 -14 -14 1018.8 1018.1
00 11.12 ЮЗ 7 н/о н/о -4.8 -5.5 95 -13 -13 1018.8 1018.0
03 11.12 Ю 8 н/о н/о -4.7 -5.4 95 -14 -14 1017.2 1016.4
06 11.12 Ю 7 н/о н/о -4.6 -5.1 96 -13 -13 1016.8 1016.0
09 11.12 ЮЗ 11
{14}
н/о н/о -3.7 -4.5 94 -14 -14 1016.7 1016.0
12 11.12 ЮЗ 9
{14}
н/о н/о -3.7 -4.5 94 -13 -13 1015.8 1015.0
15 11.12 ЮЗ 11
{14}
н/о н/о -2.6 -3.9 91 -12 -12 1016.3 1015.6
18 11.12 ЮЗ 12
{17}
н/о н/о -1.5 -2.8 91 -11 -11 1015.1 1014.4
21 11.12 ЮЗ 11
{15}
н/о н/о -1.2 -1.6 97 -10 -10 1014.5 1013.8
00 12.12 ЮЗ 9
{14}
н/о н/о -1.2 -1.8 96 -10 -10 1014.5 1013.7
03 12.12 ЮЗ 10
{13}
н/о н/о -1.4 -1.7 98 -10 -10 1014.6 1013.8
06 12.12 ЮЗ 9 н/о н/о -1.9 -2.3 97 -11 -11 1014.5 1013.7
09 12.12 ЮЗ 10 н/о н/о -2.2 -2.5 98 -11 -11 1014.6 1013.8
12 12.12 ЮЗ 12
{15}
н/о н/о -2.8 -2.9 99 -13 -13 1013.9 1013.2
15 12.12 ЮЗ 12
{16}
н/о н/о -1.7 -2.5 94 -11 -11 1015.1 1014.3
18 12.12 ЮЗ 13
{18}
н/о н/о -3.1 -3.4 98 -13 -13 1012.0 1011.3
21 12.12 ЮЗ 12
{17}
н/о н/о -2.2 -3.0 94 -12 -12 1013.0 1012.2
00 13.12 ЮЗ 14
{19}
н/о н/о -2.2 -3.9 88 -12 -12 1009.9 1009.1
03 13.12 ЮЗ 15
{21}
н/о н/о -3.6 -4.6 93 -15 -15 1005.3 1004.5
06 13.12 ЮЗ 16
{23}
н/о н/о -3.2 -4.8 89 -14 -14 1003.4 1002.6
09 13.12 ЮЗ 17
{23}
н/о н/о -2.7 -4.3 89 -14 -14 1000.8 1000.1
12 13.12 ЮЗ 17
{23}
н/о н/о -2.8 -3.3 96 -14 -14 996.3 995.6
15 13.12 ЮЗ 15
{23}
н/о н/о -1.6 -3.0 90 -12 -12 993.9 993.2
18 13.12 ЮЗ 15
{22}
н/о н/о -1.5 -1.8 98 -12 -12 989.7 989.0
21 13.12 ЮЗ 14
{21}
н/о н/о -0.1 -0.2 99 -10 -10 988.6 987.9
00 14.12 З 15
{19}
н/о н/о -1.0 -2.9 87 -11 -11 986.2 985.5
03 14.12 З 15
{21}
н/о н/о -1.9 -3.3 90 -12 -12 988.2 987.4
06 14.12 З 15
{22}
н/о н/о -2.5 -3.0 96 -13 -13 990.7 989.9
09 14.12 З 16
{23}
н/о н/о -1.2 -2.8 89 -12 -12 993.5 992.7
12 14.12 З 15
{23}
н/о н/о -0.8 -1.5 95 -11 -11 995.1 994.3
15 14.12 З 15
{20}
н/о н/о -0.5 -1.3 94 -10 -10 996.1 995.3
18 14.12 З 13
{19}
н/о н/о -0.4 -1.1 95 -10 -10 998.4 997.6
21 14.12 З 13
{20}
н/о н/о +0.1 -0.5 96 -9 -9 1000.5 999.8
00 15.12 З 13
{21}
н/о н/о +0.1 -1.0 92 -9 -9 1001.7 1000.9
03 15.12 З 11
{17}
н/о н/о -0.7 -1.7 93 -10 -10 1003.0 1002.3
06 15.12 З 10
{16}
н/о н/о -1.6 -2.7 92 -10 -10 1004.4 1003.6
09 15.12 З 8
{13}
н/о н/о -2.2 -3.0 94 -10 -10 1007.1 1006.3
12 15.12 З 8 н/о н/о -2.1 -3.1 93 -10 -10 1008.9 1008.1
15 15.12 З 7 н/о н/о -2.5 -3.6 92 -10 -10 1008.9 1008.1
18 15.12 ЮЗ 6 н/о н/о -4.1 -5.1 93 -12 -12 1007.8 1007.0
21 15.12 Ю 6 н/о н/о -4.3 -5.1 94 -12 -12 1007.7 1006.9
00 16.12 Ю 5 н/о н/о -2.9 -3.2 98 -10 -10 1008.1 1007.3
03 16.12 З 9 н/о н/о -2.3 -2.4 99 -11 -11 1005.7 1005.0
06 16.12 З 9 н/о н/о -1.9 -2.0 99 -11 -11 1005.3 1004.5
09 16.12 З 8 н/о н/о -0.6 -0.7 99 -9 -9 1007.9 1007.1
12 16.12 З 10
{14}
н/о н/о +0.2 -0.6 94 -8 -8 1008.2 1007.4
15 16.12 З 11
{14}
н/о н/о -0.1 -0.5 97 -9 -9 1008.3 1007.6
18 16.12 З 8
{14}
н/о н/о -0.3 -1.1 94 -8 -8 1009.2 1008.4
21 16.12 ЮЗ 7 н/о н/о -0.4 -1.1 95 -8 -8 1009.9 1009.1

 

Местоположение метеостанции Мыс Микулкин (Ненецкий АО, Россия): широта 67.80 долгота 46.66 высота над уровнем моря 6 м.

В архиве по умолчанию представлена погода на Мысе Микулкин за последнюю неделю. Архивные данные за месяц целиком и за предыдущие месяцы, начиная с января 2011 года, Вы можете получить, выбрав интересующий диапазон дат из раскрывающегося списка и нажав кнопку "Ввод!".

Внимание! Время в таблицах - всемирное. Для получения местного времени необходимо прибавить поправку, которая на Мысе Микулкин равна 3 ч.

Смотрите также архив погоды в соседних городах и на ближайших метеорологических станциях:

Погода в Индиге (Ненецкий АО, Россия) (86 км)
Погода в Шойне (Ненецкий АО, Россия) (105 км)
Погода в Нижней Пеше (Ненецкий АО, Россия) (126 км)
Погода в Бугрино (Ненецкий АО, Россия) (156 км)
Погода в Неси (Ненецкий АО, Россия) (158 км)
Погода в Канином Носе (Ненецкий АО, Россия) (168 км)
Погода в Сенгейском Шаре (Ненецкий АО, Россия) (205 км)
Погода в Коткино (Ненецкий АО, Россия) (209 км)
Погода на Колгуевом Острове (Ненецкий АО, Россия) (216 км)
Погода на Моржовец Острове (Архангельская область, Россия) (216 км)

Пояснения к столбцам:

Ветер - указаны скорость ветра в м/с - средняя за 10 мин, порывы в срок и между сроками (в фигурных скобках) и направление, откуда дует ветер: С - северный, СВ - северо-восточный, В - восточный, ЮВ - юго-восточный, Ю - южный, ЮЗ - юго-западный, З - западный, СЗ - северо-западный.
Видимость - горизонтальная дальность видимости в метрах или километрах. При видимости от 1 до 10 км при отсутствии осадков обычно наблюдается дымка, при ухудшении видимости до 1 км и менее - туман. В сухую погоду видимость может ухудшаться дымом, пылью или мглою.
Явления - указаны атмосферные явления, наблюдавшиеся в срок или в последний час перед сроком; фигурными скобками обозначены явления, наблюдавшиеся между сроками (за 1-3 часа до срока); квадратными скобками обозначены град или гололедные отложения с указанием их диаметра в мм.
Облачность - указаны через наклонную черту общая и нижняя облачность в баллах и высота нижней границы облаков в метрах; квадратными скобками обозначены формы облаков: Ci - перистые, Cs - перисто-слоистые, Cc - перисто-кучевые, Ac - высококучевые, As - высокослоистые, Sc - слоисто-кучевые, Ns - слоисто-дождевые, Cu - кучевые, Cb - кучево-дождевые. Подробнее классификацию облаков см. в Атласе облаков (PDF).
T - Температура воздуха - температура, измеренная на высоте 2 м над землей.
Td - Температура точки росы - температура, при понижении до которой содержащийся в воздухе водяной пар достигнет насыщения.
f - Относительная влажность воздуха - влажноcть воздуха, измеренная на высоте 2 м над землей.
Te - Эффективная температура - температура, которую ощущает одетый по сезону человек в тени. Характеристика душности погоды. При расчете учитывается влияние влажности воздуха и скорости ветра на теплоощущения человека.
Tes - Эффективная температура на солнце - температура, которую ощущает человек, с поправкой на солнечный нагрев. Характеристика знойности погоды. Зависит от высоты солнца над горизонтом, облачности и скорости ветра. Ночью, в пасмурную погоду, а также при ветре 12 м/с и более поправка равна нулю.
P - Атмосферное давление - приведенное к уровню моря атмосферное давление.
Po - Атмосферное давление - измеренное на уровне метеостанции атмосферное давление.
Tmin - Минимальная температура - минимум температуры воздуха на высоте 2 м над землей.
Tmax - Максимальная температура - максимум температуры воздуха на высоте 2 м над землей.
R - Количество осадков - Количество выпавших осадков за период времени, мм. При наведении курсора мыши на число - период времени, за который выпало указанное количество осадков.
R24 - Количество осадков - Количество выпавших осадков за 24 часа, мм.
S - Снежный покров - Высота снежного покрова, см. При наведении курсора мыши на число - состояние снежного покрова и степень покрытия местности в баллах.